Date String (YYYY-MM-DD hh:mm:ss) UTC,Instrument flags,absolute air pressure of the measurement (hPa),sample flow rate (lpm),inlet stack bypass flow (lpm),air temperature of the measurement (°C),ambient temperature measured by the external sensor (°C),aerosol sample conditioner tube jacket temperature (°C),OPC LED temperature (°C),internal box temperature (°C),relative humidity of the measurement (%),span deviation,mass concentration of particles derived from Lorenz-Mie calculation of OPC scattering (μg/m³),mass concentration of particles derived from Lorenz-Mie calculation of OPC scattering (μg/m³),mass concentration of particles derived from Lorenz-Mie calculation of OPC scattering (μg/m³)
DateTimeUTC,F1_M11,P_M11,Q1_M11,Q2_M11,T1_M11,T2_M11,T3_M11,T4_M11,T5_M11,U1_M11,ZSPAN_M11,X0_M11,X2_M11,X1_M11
2023-08-19 22:00:00,SystemResetWarning,0832.7,4.99,000.00,027.4,025.3,000.0,035.7,029.1,30.7,0000.0,0008.77,0003.88,0003.15
2023-08-19 22:01:00,SystemResetWarning,0832.7,4.99,000.00,027.5,025.7,000.0,035.7,029.2,30.0,0000.0,0008.80,0003.93,0003.16
2023-08-19 22:02:00,SystemResetWarning,0832.7,5.00,000.00,027.5,026.1,000.0,035.7,029.4,29.5,0000.0,0008.88,0003.97,0003.15
2023-08-19 22:03:00,SystemResetWarning,0832.7,5.00,000.00,027.6,026.0,000.0,035.7,029.4,29.8,0000.0,0008.83,0003.97,0003.15
2023-08-19 22:04:00,SystemResetWarning,0832.7,5.00,000.00,027.6,024.7,000.0,035.7,029.1,30.5,0000.0,0008.72,0003.95,0003.14
2023-08-19 22:05:00,SystemResetWarning,0832.7,5.02,000.00,027.5,024.1,000.0,035.6,028.9,30.7,0000.0,0008.44,0003.91,0003.13
2023-08-19 22:06:00,SystemResetWarning,0832.7,5.00,000.00,027.4,024.3,000.0,035.6,028.9,29.8,0000.0,0008.10,0003.88,0003.14
2023-08-19 22:07:00,SystemResetWarning,0832.7,5.00,000.00,027.4,024.7,000.0,035.6,029.0,29.3,0000.0,0007.78,0003.86,0003.13
2023-08-19 22:08:00,SystemResetWarning,0832.7,5.00,000.00,027.4,025.1,000.0,035.7,029.1,29.6,0000.0,0007.83,0003.86,0003.12
2023-08-19 22:09:00,SystemResetWarning,0832.6,5.00,000.00,027.5,025.5,000.0,035.7,029.2,30.3,0000.0,0007.71,0003.81,0003.11
2023-08-19 22:10:00,SystemResetWarning,0832.7,5.00,000.00,027.5,025.9,000.0,035.7,029.3,29.9,0000.0,0007.53,0003.77,0003.08
2023-08-19 22:11:00,SystemResetWarning,0832.7,5.01,000.00,027.6,026.2,000.0,035.8,029.4,28.9,0000.0,0007.46,0003.72,0003.06
2023-08-19 22:12:00,SystemResetWarning,0832.7,4.99,000.00,027.6,025.4,000.0,035.7,029.3,28.8,0000.0,0007.32,0003.64,0003.03
2023-08-19 22:13:00,SystemResetWarning,0832.6,4.99,000.00,027.5,024.3,000.0,035.7,028.9,29.1,0000.0,0007.18,0003.61,0003.01
2023-08-19 22:14:00,SystemResetWarning,0832.6,5.02,000.00,027.5,024.2,000.0,035.6,028.9,29.7,0000.0,0007.33,0003.61,0002.99
2023-08-19 22:15:00,SystemResetWarning,0832.6,4.99,000.00,027.5,024.5,000.0,035.7,028.9,29.6,0000.0,0007.26,0003.62,0002.97
2023-08-19 22:16:00,SystemResetWarning,0832.7,5.00,000.00,027.5,024.9,000.0,035.7,029.0,28.9,0000.0,0006.91,0003.62,0002.96
2023-08-19 22:17:00,SystemResetWarning,0832.7,5.01,000.00,027.5,025.4,000.0,035.7,029.2,28.7,0000.0,0006.85,0003.62,0002.95
2023-08-19 22:18:00,SystemResetWarning,0832.7,5.01,000.00,027.5,025.8,000.0,035.8,029.3,28.9,0000.0,0007.00,0003.63,0002.93
2023-08-19 22:19:00,SystemResetWarning,0832.7,5.00,000.00,027.6,026.1,000.0,035.8,029.4,28.5,0000.0,0007.36,0003.62,0002.91
2023-08-19 22:20:00,SystemResetWarning,0832.7,4.99,000.00,027.7,026.1,000.0,035.8,029.4,28.2,0000.0,0007.59,0003.61,0002.89
2023-08-19 22:21:00,SystemResetWarning,0832.7,5.00,000.00,027.6,024.8,000.0,035.7,029.1,28.8,0000.0,0007.93,0003.61,0002.89
2023-08-19 22:22:00,SystemResetWarning,0832.7,5.01,000.00,027.5,024.1,000.0,035.7,028.9,29.0,0000.0,0007.93,0003.58,0002.87
2023-08-19 22:23:00,SystemResetWarning,0832.7,5.01,000.00,027.5,024.3,000.0,035.7,028.9,28.8,0000.0,0008.12,0003.58,0002.86
2023-08-19 22:24:00,SystemResetWarning,0832.7,5.00,000.00,027.5,024.7,000.0,035.7,029.0,28.7,0000.0,0008.15,0003.58,0002.85
2023-08-19 22:25:00,SystemResetWarning,0832.7,5.00,000.00,027.5,025.2,000.0,035.7,029.1,28.8,0000.0,0008.20,0003.55,0002.83
2023-08-19 22:26:00,SystemResetWarning,0832.7,5.00,000.00,027.5,025.6,000.0,035.8,029.3,28.4,0000.0,0008.56,0003.55,0002.82
2023-08-19 22:27:00,SystemResetWarning,0832.8,4.99,000.00,027.6,026.0,000.0,035.8,029.4,28.1,0000.0,0008.50,0003.57,0002.82
2023-08-19 22:28:00,SystemResetWarning,0832.8,4.99,000.00,027.6,026.0,000.0,035.8,029.4,28.2,0000.0,0009.26,0003.55,0002.79
2023-08-19 22:29:00,SystemResetWarning,0832.8,4.99,000.00,027.6,024.7,000.0,035.7,029.3,28.2,0000.0,0010.43,0003.54,0002.77
2023-08-19 22:30:00,SystemResetWarning,0832.8,5.01,000.00,027.6,023.9,000.0,035.7,029.1,28.9,0000.0,0010.27,0003.54,0002.77
2023-08-19 22:31:00,SystemResetWarning,0832.8,5.01,000.00,027.5,024.2,000.0,035.7,029.0,28.7,0000.0,0010.04,0003.53,0002.74
2023-08-19 22:32:00,SystemResetWarning,0832.8,4.99,000.00,027.5,024.6,000.0,035.7,029.0,29.1,0000.0,0009.69,0003.51,0002.71
2023-08-19 22:33:00,SystemResetWarning,0833.0,5.00,000.00,027.5,025.1,000.0,035.7,029.1,29.5,0000.0,0009.67,0003.50,0002.71
2023-08-19 22:34:00,SystemResetWarning,0833.0,5.00,000.00,027.5,025.5,000.0,035.8,029.2,28.8,0000.0,0009.50,0003.51,0002.71
2023-08-19 22:35:00,SystemResetWarning,0833.1,5.00,000.00,027.6,025.9,000.0,035.8,029.4,27.8,0000.0,0010.04,0003.51,0002.72
2023-08-19 22:36:00,SystemResetWarning,0832.9,5.00,000.00,027.7,026.2,000.0,035.8,029.5,27.9,0000.0,0010.25,0003.51,0002.73
2023-08-19 22:37:00,SystemResetWarning,0832.9,5.00,000.00,027.7,026.5,000.0,035.9,029.6,28.6,0000.0,0009.67,0003.46,0002.73
2023-08-19 22:38:00,SystemResetWarning,0833.1,4.98,000.00,027.8,025.9,000.0,035.8,029.4,28.7,0000.0,0009.52,0003.42,0002.72
2023-08-19 22:39:00,SystemResetWarning,0833.0,5.00,000.00,027.7,024.5,000.0,035.8,029.2,28.2,0000.0,0008.93,0003.40,0002.70
2023-08-19 22:40:00,SystemResetWarning,0832.8,5.02,000.00,027.6,024.3,000.0,035.7,029.1,28.1,0000.0,0007.61,0003.38,0002.70
2023-08-19 22:41:00,SystemResetWarning,0832.8,5.00,000.00,027.6,024.6,000.0,035.8,029.2,28.7,0000.0,0007.44,0003.39,0002.69
2023-08-19 22:42:00,SystemResetWarning,0833.1,4.99,000.00,027.6,025.0,000.0,035.8,029.2,28.3,0000.0,0007.57,0003.43,0002.71
2023-08-19 22:43:00,SystemResetWarning,0833.2,5.00,000.00,027.6,025.4,000.0,035.8,029.3,27.8,0000.0,0007.56,0003.43,0002.72
2023-08-19 22:44:00,SystemResetWarning,0833.3,5.00,000.00,027.7,025.8,000.0,035.9,029.4,28.6,0000.0,0007.45,0003.40,0002.70
2023-08-19 22:45:00,SystemResetWarning,0833.4,5.00,000.00,027.7,026.2,000.0,035.9,029.5,28.5,0000.0,0007.42,0003.40,0002.69
2023-08-19 22:46:00,SystemResetWarning,0833.3,5.00,000.00,027.8,025.6,000.0,035.9,029.4,28.1,0000.0,0007.08,0003.41,0002.68
2023-08-19 22:47:00,SystemResetWarning,0833.2,5.00,000.00,027.7,024.3,000.0,035.8,029.1,28.0,0000.0,0006.78,0003.42,0002.67
2023-08-19 22:48:00,SystemResetWarning,0833.3,5.01,000.00,027.6,024.2,000.0,035.8,029.0,28.0,0000.0,0007.07,0003.46,0002.65
2023-08-19 22:49:00,SystemResetWarning,0832.8,5.00,000.00,027.6,024.5,000.0,035.8,029.0,28.4,0000.0,0007.11,0003.45,0002.64
2023-08-19 22:50:00,SystemResetWarning,0832.8,5.00,000.00,027.6,024.9,000.0,035.8,029.1,28.7,0000.0,0007.53,0003.44,0002.65
2023-08-19 22:51:00,SystemResetWarning,0832.9,5.00,000.00,027.6,025.4,000.0,035.8,029.2,27.9,0000.0,0007.64,0003.44,0002.65
2023-08-19 22:52:00,SystemResetWarning,0832.8,5.00,000.00,027.6,025.8,000.0,035.9,029.4,28.0,0000.0,0007.57,0003.41,0002.64
2023-08-19 22:53:00,SystemResetWarning,0833.0,5.00,000.00,027.7,026.2,000.0,035.9,029.5,28.2,0000.0,0007.42,0003.37,0002.63
2023-08-19 22:54:00,SystemResetWarning,0833.3,4.98,000.00,027.7,025.6,000.0,035.9,029.4,28.7,0000.0,0007.75,0003.35,0002.62
2023-08-19 22:55:00,SystemResetWarning,0832.9,5.01,000.00,027.7,024.2,000.0,035.8,029.2,28.7,0000.0,0008.70,0003.37,0002.62
2023-08-19 22:56:00,SystemResetWarning,0832.8,5.01,000.00,027.6,024.0,000.0,035.7,029.1,29.2,0000.0,0009.10,0003.37,0002.63
2023-08-19 22:57:00,SystemResetWarning,0832.8,5.01,000.00,027.6,024.4,000.0,035.7,029.0,29.3,0000.0,0009.41,0003.36,0002.61
2023-08-19 22:58:00,SystemResetWarning,0832.8,4.99,000.00,027.5,024.8,000.0,035.8,029.1,29.0,0000.0,0010.13,0003.34,0002.60
2023-08-19 22:59:00,SystemResetWarning,0833.1,5.00,000.00,027.6,025.3,000.0,035.8,029.2,29.5,0000.0,0010.37,0003.34,0002.61
